Regional Weather Roundup
Issued by NWS Charleston, SC

Current Version | Previous Version | Text Only | Print | Product List | Glossary On
Versions: 1 2 3 4 5 6 7 8 9 10 11 12 13 14 15 16 17 18 19 20 21 22 23 24 25 26 27 28 29 30 31 32 33 34 35 36 37 38 39 40 41 42 43 44 45 46 47 48 49 50
750 ASUS42 KCHS 210027 RWRCHS REGIONAL WEATHER ROUNDUP NATIONAL WEATHER SERVICE CHARLESTON SC 800 PM EDT FRI OCT 20 2017 NOTE: "FAIR" INDICATES FEW OR NO CLOUDS BELOW 12,000 FEET WITH NO SIGNIFICANT WEATHER AND/OR OBSTRUCTIONS TO VISIBILITY. NOT ALL STATIONS ARE QUALITY CONTROLLED. USE DATA WITH CAUTION... ESPECIALLY DEWPOINT OBSERVATIONS. SCZ027-030-031-034>040-042>050-210100- ...SOUTHEAST SOUTH CAROLINA... CITY SKY/WX TMP DP RH WIND PRES REMARKS N CHARLESTON CLEAR 67 59 75 SE3 30.21R 6HR MIN TEMP: 65; 6HR MAX TEMP: 81; WATERFRONT PRK NOT AVBL JOHNS ISLAND FAIR 64 61 88 CALM 30.21S PINOPOLIS N/A 68 57 68 CALM 30.11S MONCKS CORNER FAIR 59 57 94 CALM 30.21S SUMMERVILLE FAIR 59 55 88 CALM 30.21S BEAUFORT MCAS CLEAR 70 65 84 MISG 30.20R 6HR MIN TEMP: 70; 6HR MAX TEMP: 82; BEAUFORT ARPT FAIR 66 63 88 CALM 30.19S HILTON HEAD IS CLEAR 66 63 88 CALM 30.20 WALTERBORO CLEAR 61 55 82 CALM 30.21R ALLENDALE N/A 63 50 63 CALM N/A ...SOUTHERN MIDLANDS AND PEE DEE... CITY SKY/WX TMP DP RH WIND PRES REMARKS GEORGETOWN FAIR 57 57 100 CALM 30.22R KINGSTREE FAIR 57 54 88 CALM 30.21R ORANGEBURG CLEAR 61 50 67 CALM 30.20R 6HR MIN TEMP: 61; 6HR MAX TEMP: 82; BARNWELL N/A 63 52 67 CALM 30.20S AIKEN FAIR 59 46 63 CALM 30.24R MANNING HAZE 59 54 82 MISG 30.21R VSB<1/4 COLUMBIA CLEAR 67 56 67 S3 30.19R 6HR MIN TEMP: 65; 6HR MAX TEMP: 82; SUMTER CLEAR 65 49 57 CALM 30.18R 6HR MIN TEMP: 64; 6HR MAX TEMP: 81; FLORENCE CLEAR 63 54 72 CALM 30.20R 6HR MIN TEMP: 63; 6HR MAX TEMP: 81; MYRTLE BEACH CLEAR 64 58 80 CALM 30.22R N MYRTLE BEACH CLEAR 63 59 87 CALM 30.20R 6HR MIN TEMP: 62; 6HR MAX TEMP: 79; $$ GAZ063-065-086>088-099>101-113>116-118-119-134>141-150-210100- ...SOUTHEAST GEORGIA... CITY SKY/WX TMP DP RH WIND PRES REMARKS SAVANNAH ARPT CLEAR 70 63 78 SE6 30.19R 6HR MIN TEMP: 70; 6HR MAX TEMP: 82; HUNTER AAF CLEAR 68 63 83 SE5 30.17R 6HR MIN TEMP: 68; 6HR MAX TEMP: 80; FORT STEWART CLEAR 68 62 80 CALM 30.17R 6HR MIN TEMP: 68; 6HR MAX TEMP: 81; STATESBORO CLEAR 62 54 75 CALM 30.20R SYLVANIA CLEAR 62 55 80 CALM 30.20R CLAXTON FAIR 64 61 91 CALM 30.19R ...CSRA...CENTRAL AND FAR SOUTHEAST GEORGIA... CITY SKY/WX TMP DP RH WIND PRES REMARKS THOMSON CLEAR 58 50 75 CALM 30.25R AUGUSTA-BUSH CLEAR 59 52 77 CALM 30.19R 6HR MIN TEMP: 59; 6HR MAX TEMP: 84; AUGUSTA-DANIEL CLEAR 73 44 35 CALM 30.20R SWAINSBORO FAIR 59 52 77 MISG 30.20R VIDALIA CLEAR 66 54 63 CALM 30.19R EASTMAN FAIR 62 45 53 CALM 30.20S HAZLEHURST FAIR 71 50 47 E3 30.17R ALMA CLEAR 71 62 73 E5 30.17R 6HR MIN TEMP: 69; 6HR MAX TEMP: 84; WAYCROSS CLEAR 71 64 77 E6 30.18R JESUP NOT AVBL BAXLEY FAIR 70 63 78 SE5 30.18R BRUNSWICK CLEAR 68 64 88 N3 30.19R SAINT SIMONS CLEAR 73 68 84 NE6 30.17S 6HR MIN TEMP: 73; 6HR MAX TEMP: 80; $$ SCZ027-028-034-036>038-045-046-048>050-GAZ119-141-210100- ...LAKE AND SUPPLEMENTAL COASTAL OBSERVATIONS... STATION/POSITION TIME TEMP WIND PRES WAVE SWELL AIR SEA DIR/SP/G HT/PER HT/PER/DIR (UTC) (F) (DEG/KT/KT) (MB) (FT/S) (FT/S/D) WINYAH BAY 2345 64 310/ 2 1023.0R LAKE MURRAY 2350 69 CALM 1021.7R ACE BASIN NERRS 2345 66 CALM 1023.0R FORT PULASKI 0000 71 73 140/ 3/ 5 1022.7 SAPELO ISLAND NOT AVBL $$ ANZ835-935-AMZ111-154-330-350-352-354-370-450-454-472-210100- ...C-MAN AND BUOY OBSERVATIONS... STATION/POSITION TIME TEMP WIND PRES WAVE SWELL AIR SEA DIR/SP/G HT/PER HT/PER/DIR (UTC) (F) (DEG/KT/KT) (MB) (FT/S) (FT/S/D) BUOY 41004 0010 74 80 60/ 6/ 10 1022.3 BUOY 41008 2350 76 77 80/ 14/ 16 1021.5R 4/ 5 3/110/ 8 FOLLY BEACH CMAN 0000 72 100/ 7/ 8 1023.4R CAPERS NEARSHORE 0008 70 73 130/ 8/ 14 1022.5R FRIPP NEARSHORE 0008 74 100/ 6/ 10 N/A STATION/POSITION TIME TEMP WIND PRES WAVE SWELL AIR SEA DIR/SP/G HT/PER HT/PER/DIR (UTC) (F) (DEG/KT/KT) (MB) (FT/S) (FT/S/D) 5E ST. MARYS GA 0000 77 N/A 5/ 6 FRYING PAN BUOY 0010 72 76 130/ 2/ 4 1022.5 BUOY 41025 2350 73 81 10/ 4/ 6 1022.6R 2/ 8 2/ 90/ 8 CAPE LOOKOUT NC 0000 71 130/ 2/ 3 1022.6R BUOY 41002 2350 77 80 50/ 12/ 14 1021.2R 5/ 9 3/110/ 9 BUOY 41010 NOT AVBL ST AUGUSTINE FL 0000 79 78 80/ 14/ 16 1020.8R $$

USA.gov is the U.S. government's official web portal to all federal, state and local government web resources and services.